Location: Poughquag
(41.6090°N, 73.6820°W)
Time: 11:56:13
(UTC-04:00)

A-11 Canister half - Pass Details

Date: 02 June 2020
Orbit: 1527 x 1682 km, 47.3° (Epoch: 06 July)

Event Time Altitude Azimuth Distance (km) Brightness Sun altitude
Rises 13:59:38 0° 297° (WNW) 4,731 11.6 66.2°
Reaches altitude 10° 14:02:45 10° 293° (WNW) 3,763 11.3 65.8°
Maximum altitude 14:11:53 52° 220° (SW) 1,918 11.7 64.6°
Drops below altitude 10° 14:21:18 10° 148° (SSE) 3,869 11.3 63.3°
Sets 14:24:34 0° 143° (SE) 4,873 11.6 62.8°
